Tracking 30261 objects as of 18-Feb-2025
HD Live streaming from Space Station
objects crossing your sky now

ONEWEB-0517

Track ONEWEB-0517 now!
10-day predictions
ONEWEB-0517 is classified as:


NORAD ID: 54135
Int'l Code: 2022-138Y
Perigee: 1,191.8 km
Apogee: 1,194.1 km
Inclination: 87.9 °
Period: 109.1 minutes
Semi major axis: 7563 km
RCS: Unknown
Launch date: October 22, 2022
Source: United Kingdom (UK)
Launch site: SRIHARIKOTA (SRI)
Your satellite tracking list
Your tracking list is empty




NASA's NSSDC Master Catalog

Two Line Element Set (TLE):
1 54135U 22138Y   25049.26391250 -.00000009  00000-0 -54531-4 0  9995
2 54135  87.9162  41.1450 0001513  93.5438 266.5868 13.19725729113877
Source of the keplerian elements: AFSPC